This is the latest recevied weather packets stored in our database for station/object K3JSE-2. If no packets are shown the sender has not sent any weather packets the latest 1 day(s).
| Time | Temp. | Humidity | Pressure | Rain* | Wind** | Luminosity | Snow |
|---|---|---|---|---|---|---|---|
| 1778000318 | 26.11° C | 43% | 1010.2 hPa | 0 mm | 0.89 m/s, 271° | - | - |
| 1778000073 | 26.11° C | 45% | 1010.3 hPa | 0 mm | 0 m/s | - | - |
| 1777999778 | 26.11° C | 46% | 1010.3 hPa | 0 mm | 0 m/s | - | - |
| 1777999528 | 26.11° C | 42% | 1010.4 hPa | 0 mm | 1.79 m/s, 269° | - | - |
| 1777999278 | 26.11° C | 48% | 1010.4 hPa | 0 mm | 1.79 m/s, 266° | - | - |
| 1777999130 | 26.67° C | 44% | 1010.3 hPa | 0 mm | 0.89 m/s, 53° | - | - |
| 1777999013 | 26.67° C | 45% | 1010.4 hPa | 0 mm | 0 m/s | - | - |
| 1777998748 | 26.11° C | 41% | 1010.3 hPa | 0 mm | 0.45 m/s, 254° | - | - |
| 1777998488 | 26.11° C | 41% | 1010.3 hPa | 0 mm | 0.89 m/s, 295° | - | - |
| 1777998389 | 26.11° C | 42% | 1010.3 hPa | 0 mm | 0.45 m/s, 258° | - | - |
| 1777998243 | 26.11° C | 39% | 1010.4 hPa | 0 mm | 1.34 m/s, 264° | - | - |
| 1777997958 | 26.11° C | 40% | 1010.3 hPa | 0 mm | 1.34 m/s, 300° | - | - |
| 1777997688 | 25.56° C | 41% | 1010.3 hPa | 0 mm | 0.89 m/s, 223° | - | - |
| 1777997609 | 26.11° C | 41% | 1010.4 hPa | 0 mm | 0.45 m/s, 315° | - | - |
| 1777997433 | 26.11° C | 41% | 1010.4 hPa | 0 mm | 0.89 m/s, 269° | - | - |
| 1777997138 | 25.56° C | 42% | 1010.4 hPa | 0 mm | 0.89 m/s, 111° | - | - |
| 1777996844 | 25° C | 44% | 1010.4 hPa | 0 mm | 0.89 m/s, 261° | - | - |
| 1777996838 | 25° C | 44% | 1010.4 hPa | 0 mm | 0.89 m/s, 230° | - | - |
| 1777996588 | 25° C | 41% | 1010.4 hPa | 0 mm | 1.79 m/s, 270° | - | - |
| 1777996333 | 25.56° C | 41% | 1010.5 hPa | 0 mm | 2.24 m/s, 283° | - | - |
| 1777996205 | 25.56° C | 45% | 1010.5 hPa | 0 mm | 2.24 m/s, 278° | - | - |
| 1777996063 | 25° C | 42% | 1010.5 hPa | 0 mm | 1.34 m/s, 278° | - | - |
| 1777995808 | 25° C | 43% | 1010.6 hPa | 0 mm | 0.89 m/s, 294° | - | - |
| 1777995548 | 24.44° C | 42% | 1010.7 hPa | 0 mm | 0.45 m/s, 265° | - | - |
| 1777995439 | 25° C | 42% | 1010.8 hPa | 0 mm | 1.34 m/s, 236° | - | - |
* Rain latest hour (hover to see other rain measurements)
** Current wind speed in m/s (hover to see current wind gust speed)